This is the latest recevied weather packets stored in our database for station/object F4AMY-13. If no packets are shown the sender has not sent any weather packets the latest 10 day(s).
| Time | Temp. | Humidity | Pressure | Rain* | Wind** | Luminosity | Snow |
|---|---|---|---|---|---|---|---|
| 1777813295 | 20.56° C | 51% | 1016.5 hPa | 0 mm | 38.45 m/s, ° | 86 W/m² | - |
| 1777812995 | 20.56° C | 51% | 1016.5 hPa | 0 mm | 38.45 m/s, ° | 86 W/m² | - |
| 1777812774 | 20.56° C | 52% | 1016.6 hPa | 0 mm | 43.36 m/s, ° | 97 W/m² | - |
| 1777812474 | 20.56° C | 48% | 1016.8 hPa | 0 mm | 47.39 m/s, ° | 106 W/m² | - |
| 1777812173 | 20.56° C | 49% | 1016.7 hPa | 0 mm | 51.41 m/s, ° | 115 W/m² | - |
| 1777811873 | 20.56° C | 47% | 1016.8 hPa | 0 mm | 45.6 m/s, ° | 102 W/m² | - |
| 1777811573 | 20.56° C | 47% | 1016.6 hPa | 0 mm | 37.55 m/s, ° | 84 W/m² | - |
| 1777811273 | 20.56° C | 46% | 1016.8 hPa | 0 mm | 36.21 m/s, ° | 81 W/m² | - |
| 1777810973 | 20.56° C | 45% | 1016.8 hPa | 0 mm | 36.66 m/s, ° | 82 W/m² | - |
| 1777810673 | 20.56° C | 45% | 1016.9 hPa | 0 mm | 35.76 m/s, ° | 80 W/m² | - |
| 1777810373 | 20.56° C | 43% | 1017.1 hPa | 0 mm | 38.45 m/s, ° | 86 W/m² | - |
| 1777810073 | 20.56° C | 43% | 1016.8 hPa | 0 mm | 52.75 m/s, ° | 118 W/m² | - |
| 1777809773 | 20.56° C | 46% | 1016.8 hPa | 0 mm | 48.28 m/s, ° | 108 W/m² | - |
| 1777809473 | 21.11° C | 44% | 1017.1 hPa | 0 mm | 46.94 m/s, ° | 105 W/m² | - |
| 1777809173 | 21.11° C | 44% | 1017.1 hPa | 0 mm | 58.56 m/s, ° | 131 W/m² | - |
| 1777808873 | 21.67° C | 43% | 1017.2 hPa | 0 mm | 60.8 m/s, ° | 136 W/m² | - |
| 1777808573 | 21.67° C | 44% | 1017.2 hPa | 0 mm | 57.67 m/s, ° | 129 W/m² | - |
| 1777808273 | 21.67° C | 43% | 1017.3 hPa | 0 mm | 53.2 m/s, ° | 119 W/m² | - |
| 1777807973 | 21.67° C | 42% | 1017.3 hPa | 0 mm | 54.09 m/s, ° | 121 W/m² | - |
| 1777807673 | 21.67° C | 41% | 1017.1 hPa | 0 mm | 105.5 m/s, ° | 236 W/m² | - |
| 1777807373 | 21.67° C | 46% | 1017.2 hPa | 0 mm | 59.9 m/s, ° | 134 W/m² | - |
| 1777807073 | 21.67° C | 46% | 1017.2 hPa | 0 mm | 59.9 m/s, ° | 134 W/m² | - |
| 1777806773 | 21.11° C | 50% | 1017.1 hPa | 0 mm | 125.62 m/s, ° | 281 W/m² | - |
| 1777806473 | 21.11° C | 48% | 1016.9 hPa | 0 mm | 73.31 m/s, ° | 164 W/m² | - |
| 1777806172 | 20.56° C | 44% | 1017 hPa | 0 mm | 62.14 m/s, ° | 139 W/m² | - |
* Rain latest hour (hover to see other rain measurements)
** Current wind speed in m/s (hover to see current wind gust speed)